TOM3MA LEIB-EGNX

Flight info

Callsign TOM3MA
Flight time 2h 19m
Altitude 34000
Route EPAMA N856 UMURE N863 GIROM DCT GONUP DCT TUPAR UN861 DIKRO UM184 HEMEL
Aircraft B738/M-SDE2E3FGHIRWXY/LB1

Departure

Time 2026-05-04 08:42
Airport Ibiza Airport (LEIB)

Arrival

Time 2026-05-04 11:01
Airport East Midlands Airport (EGNX)
Time Latitude Longitude Altitude Speed Heading
2026-05-04 08:13 38.87462 1.36663 7 ft 0 kts 15°
2026-05-04 08:35 38.87464 1.36664 7 ft 2 kts 17°
2026-05-04 08:35 38.87466 1.36680 8 ft 2 kts 111°
2026-05-04 08:35 38.87449 1.36691 7 ft 4 kts 154°
2026-05-04 08:35 38.87416 1.36736 7 ft 9 kts 87°
2026-05-04 08:37 38.87415 1.37181 10 ft 12 kts 62°
2026-05-04 08:37 38.87458 1.37285 8 ft 14 kts 62°
2026-05-04 08:37 38.87504 1.37396 8 ft 15 kts 62°
2026-05-04 08:38 38.87559 1.37529 8 ft 19 kts 62°
2026-05-04 08:38 38.87623 1.37681 8 ft 19 kts 61°
2026-05-04 08:38 38.87687 1.37831 8 ft 19 kts 62°
2026-05-04 08:40 38.87967 1.38657 9 ft 8 kts 152°
2026-05-04 08:40 38.87917 1.38690 10 ft 8 kts 153°
2026-05-04 08:40 38.87865 1.38692 10 ft 8 kts 208°
2026-05-04 08:41 38.87830 1.38631 10 ft 9 kts 243°
2026-05-04 08:41 38.87803 1.38563 11 ft 10 kts 242°
2026-05-04 08:41 38.87672 1.38249 13 ft 84 kts 242°
2026-05-04 08:41 38.87265 1.37266 64 ft 156 kts 242°
2026-05-04 08:42 38.86758 1.35934 782 ft 160 kts 244°
2026-05-04 08:42 38.86316 1.34659 1315 ft 164 kts 247°
2026-05-04 08:42 38.85814 1.33252 1780 ft 184 kts 240°
2026-05-04 08:42 38.85165 1.31777 2323 ft 196 kts 240°
2026-05-04 08:43 38.84498 1.30152 2827 ft 213 kts 242°
2026-05-04 08:43 38.83807 1.28430 3340 ft 219 kts 241°
2026-05-04 08:43 38.83338 1.26582 3816 ft 223 kts 267°
2026-05-04 08:43 38.83722 1.24593 4358 ft 244 kts 295°
2026-05-04 08:44 38.84928 1.22926 4919 ft 268 kts 320°
2026-05-04 08:44 38.86472 1.21513 5414 ft 276 kts 321°
2026-05-04 08:46 38.98841 1.17432 8885 ft 299 kts 12°
2026-05-04 08:46 39.00857 1.18130 9401 ft 302 kts 12°
2026-05-04 08:46 39.02900 1.18833 9916 ft 306 kts 12°
2026-05-04 08:46 39.04965 1.19537 10403 ft 309 kts 12°
2026-05-04 08:47 39.07131 1.20264 10762 ft 332 kts 12°
2026-05-04 08:47 39.09398 1.21021 11589 ft 340 kts 11°
2026-05-04 08:47 39.11711 1.21793 12579 ft 345 kts 11°
2026-05-04 08:47 39.14055 1.22573 13570 ft 351 kts 11°
2026-05-04 08:48 39.16438 1.23364 14490 ft 357 kts 10°
2026-05-04 08:48 39.18861 1.24168 15407 ft 363 kts
2026-05-04 08:48 39.21331 1.24988 16338 ft 369 kts
2026-05-04 08:48 39.23836 1.25818 17252 ft 375 kts
2026-05-04 08:49 39.26385 1.26664 18162 ft 382 kts
2026-05-04 08:50 39.42559 1.32052 22770 ft 418 kts
2026-05-04 08:50 39.45395 1.33000 23493 ft 424 kts
2026-05-04 08:51 39.48273 1.33963 24103 ft 430 kts
2026-05-04 08:51 39.51183 1.34938 24725 ft 434 kts
2026-05-04 08:51 39.54119 1.35923 25338 ft 439 kts
2026-05-04 08:51 39.57094 1.36920 25932 ft 443 kts
2026-05-04 08:52 39.60055 1.37831 26550 ft 442 kts
2026-05-04 08:52 39.63085 1.37853 27117 ft 432 kts 346°
2026-05-04 08:52 39.66080 1.37417 27711 ft 435 kts 345°
2026-05-04 08:52 39.69101 1.36954 28263 ft 440 kts 345°
2026-05-04 08:53 39.72154 1.36493 28845 ft 443 kts 345°
2026-05-04 08:54 39.93423 1.33625 33407 ft 435 kts 345°
2026-05-04 08:55 39.96435 1.33226 33944 ft 436 kts 345°
2026-05-04 08:55 39.99468 1.32819 33971 ft 440 kts 345°
2026-05-04 08:55 40.05535 1.32013 33990 ft 434 kts 345°
2026-05-04 09:01 40.68667 1.23505 33992 ft 433 kts 345°
2026-05-04 09:01 40.74668 1.22684 33988 ft 433 kts 345°
2026-05-04 09:02 40.80670 1.21857 33989 ft 434 kts 345°
2026-05-04 09:02 40.86675 1.21028 33982 ft 434 kts 345°
2026-05-04 09:03 40.92681 1.20197 33995 ft 435 kts 346°
2026-05-04 09:03 40.98702 1.19364 33977 ft 435 kts 346°
2026-05-04 09:04 41.04688 1.18534 33967 ft 435 kts 346°
2026-05-04 09:04 41.10710 1.17697 33966 ft 435 kts 346°
2026-05-04 09:05 41.16741 1.16879 33978 ft 437 kts 347°
2026-05-04 09:05 41.22812 1.16248 33964 ft 437 kts 348°
2026-05-04 09:06 41.28877 1.15640 33960 ft 436 kts 348°
2026-05-04 09:08 41.53071 1.13139 33996 ft 436 kts 347°
2026-05-04 09:08 41.59111 1.12490 34006 ft 435 kts 347°
2026-05-04 09:09 41.65144 1.11816 33991 ft 435 kts 347°
2026-05-04 09:09 41.71169 1.11151 33990 ft 434 kts 347°
2026-05-04 09:10 41.77197 1.10518 34014 ft 434 kts 347°
2026-05-04 09:10 41.83219 1.09891 33985 ft 434 kts 347°
2026-05-04 09:11 41.89246 1.09260 33972 ft 434 kts 347°
2026-05-04 09:11 41.95267 1.08625 33975 ft 434 kts 347°
2026-05-04 09:12 42.01293 1.07989 33988 ft 435 kts 347°
2026-05-04 09:14 42.25432 1.05394 34007 ft 434 kts 347°
2026-05-04 09:14 42.31445 1.04731 33999 ft 433 kts 347°
2026-05-04 09:15 42.37401 1.04074 34000 ft 432 kts 347°
2026-05-04 09:15 42.43386 1.03413 34002 ft 432 kts 348°
2026-05-04 09:17 42.70245 1.00493 33984 ft 431 kts 348°
2026-05-04 09:18 42.76222 0.99839 33977 ft 431 kts 348°
2026-05-04 09:18 42.82016 0.98345 33989 ft 420 kts 338°
2026-05-04 09:19 42.87690 0.96296 33974 ft 424 kts 337°
2026-05-04 09:19 42.93399 0.94248 33959 ft 425 kts 338°
2026-05-04 09:20 42.99131 0.92252 33975 ft 424 kts 337°
2026-05-04 09:20 43.03903 0.90589 33956 ft 429 kts 338°
2026-05-04 09:21 43.09602 0.88576 33942 ft 419 kts 338°
2026-05-04 09:21 43.15309 0.86635 33975 ft 425 kts 338°
2026-05-04 09:22 43.21072 0.84645 33967 ft 429 kts 338°
2026-05-04 09:22 43.26860 0.82633 33974 ft 428 kts 338°
2026-05-04 09:23 43.32626 0.80622 33954 ft 426 kts 338°
2026-05-04 09:23 43.38349 0.78620 33956 ft 423 kts 338°
2026-05-04 09:25 43.60711 0.69293 33968 ft 421 kts 334°
2026-05-04 09:26 43.66281 0.66717 33974 ft 423 kts 334°
2026-05-04 09:26 43.71878 0.64148 33978 ft 425 kts 335°
2026-05-04 09:27 43.77505 0.61569 33959 ft 426 kts 335°
2026-05-04 09:27 43.83115 0.58996 33968 ft 423 kts 335°
2026-05-04 09:28 43.88690 0.56433 33960 ft 421 kts 335°
2026-05-04 09:28 43.94236 0.53875 33970 ft 420 kts 335°
2026-05-04 09:29 43.99787 0.51309 33961 ft 421 kts 335°
2026-05-04 09:29 44.05340 0.48737 33978 ft 421 kts 335°
2026-05-04 09:30 44.10902 0.46157 33972 ft 422 kts 335°
2026-05-04 09:30 44.16474 0.43567 33971 ft 422 kts 335°
2026-05-04 09:31 44.22056 0.40967 33969 ft 423 kts 335°
2026-05-04 09:31 44.27643 0.38359 33965 ft 424 kts 335°
2026-05-04 09:32 44.33243 0.35741 33959 ft 424 kts 335°
2026-05-04 09:34 44.55581 0.25244 33951 ft 424 kts 336°
2026-05-04 09:34 44.61169 0.22605 33947 ft 424 kts 336°
2026-05-04 09:35 44.66755 0.19960 33946 ft 424 kts 336°
2026-05-04 09:35 44.72349 0.17307 33946 ft 425 kts 336°
2026-05-04 09:37 44.94744 0.06632 33946 ft 425 kts 336°
2026-05-04 09:38 45.00341 0.03950 33967 ft 424 kts 336°
2026-05-04 09:38 45.05934 0.01264 33964 ft 425 kts 336°
2026-05-04 09:39 45.11543 -0.01436 33963 ft 427 kts 336°
2026-05-04 09:39 45.17160 -0.04144 33950 ft 427 kts 336°
2026-05-04 09:40 45.22781 -0.06859 33958 ft 426 kts 336°
2026-05-04 09:40 45.28357 -0.09559 33962 ft 426 kts 336°
2026-05-04 09:42 45.50786 -0.20475 33966 ft 425 kts 336°
2026-05-04 09:43 45.56384 -0.23214 33972 ft 426 kts 336°
2026-05-04 09:43 45.61989 -0.25963 33971 ft 426 kts 337°
2026-05-04 09:44 45.67592 -0.28716 33966 ft 426 kts 337°
2026-05-04 09:46 45.89934 -0.39752 33971 ft 424 kts 337°
2026-05-04 09:46 45.95515 -0.42524 33971 ft 424 kts 337°
2026-05-04 09:47 46.01087 -0.45297 33971 ft 424 kts 337°
2026-05-04 09:49 46.23383 -0.56453 33974 ft 424 kts 337°
2026-05-04 09:51 46.42896 -0.66205 33966 ft 427 kts 342°
2026-05-04 09:51 46.48804 -0.67467 33972 ft 430 kts 352°
2026-05-04 09:52 46.54754 -0.68366 33977 ft 430 kts 352°
2026-05-04 09:52 46.60711 -0.69302 33967 ft 431 kts 351°
2026-05-04 09:53 46.66670 -0.70286 33967 ft 431 kts 351°
2026-05-04 09:53 46.72622 -0.71289 33965 ft 431 kts 351°
2026-05-04 09:54 46.78573 -0.72297 33973 ft 430 kts 351°
2026-05-04 09:54 46.84522 -0.73306 33968 ft 430 kts 351°
2026-05-04 09:55 46.90467 -0.74317 33972 ft 430 kts 351°
2026-05-04 09:55 46.96407 -0.75328 33980 ft 430 kts 351°
2026-05-04 09:56 47.02347 -0.76341 33972 ft 430 kts 351°
2026-05-04 09:56 47.08288 -0.77357 33972 ft 430 kts 351°
2026-05-04 09:57 47.14197 -0.78370 33978 ft 430 kts 351°
2026-05-04 09:57 47.20147 -0.79392 33974 ft 431 kts 351°
2026-05-04 09:58 47.26140 -0.80424 33970 ft 431 kts 351°
2026-05-04 09:58 47.32054 -0.81444 33972 ft 431 kts 351°
2026-05-04 10:00 47.55885 -0.85543 33979 ft 431 kts 352°
2026-05-04 10:04 47.97590 -0.90575 33964 ft 428 kts 353°
2026-05-04 10:04 48.03521 -0.91308 33971 ft 427 kts 353°
2026-05-04 10:05 48.09450 -0.92043 33965 ft 427 kts 353°
2026-05-04 10:05 48.15328 -0.92773 33970 ft 427 kts 353°
2026-05-04 10:06 48.21252 -0.93511 33971 ft 427 kts 353°
2026-05-04 10:06 48.27167 -0.94250 33977 ft 427 kts 353°
2026-05-04 10:08 48.46888 -0.96724 33980 ft 427 kts 353°
2026-05-04 10:08 48.52807 -0.97470 33980 ft 427 kts 353°
2026-05-04 10:09 48.58726 -0.98218 33979 ft 427 kts 353°
2026-05-04 10:09 48.64645 -0.98968 33985 ft 427 kts 353°
2026-05-04 10:10 48.70564 -0.99720 33974 ft 427 kts 354°
2026-05-04 10:10 48.76490 -1.00474 33985 ft 427 kts 354°
2026-05-04 10:11 48.82411 -1.01229 33980 ft 427 kts 353°
2026-05-04 10:11 48.88329 -1.01986 33995 ft 427 kts 354°
2026-05-04 10:12 48.94255 -1.02746 33985 ft 427 kts 354°
2026-05-04 10:12 49.00172 -1.03506 33985 ft 427 kts 354°
2026-05-04 10:13 49.06090 -1.04268 33986 ft 427 kts 353°
2026-05-04 10:13 49.12011 -1.05032 33990 ft 427 kts 353°
2026-05-04 10:14 49.17922 -1.05798 33990 ft 426 kts 353°
2026-05-04 10:16 49.41520 -1.08870 34004 ft 426 kts 353°
2026-05-04 10:16 49.47423 -1.09644 34009 ft 426 kts 353°
2026-05-04 10:17 49.53334 -1.10420 34017 ft 426 kts 353°
2026-05-04 10:19 49.74027 -1.08942 34017 ft 427 kts
2026-05-04 10:19 49.76982 -1.08530 34020 ft 427 kts
2026-05-04 10:19 49.82899 -1.07721 34011 ft 426 kts
2026-05-04 10:20 49.88808 -1.06923 34014 ft 426 kts
2026-05-04 10:20 49.94706 -1.06123 34013 ft 426 kts
2026-05-04 10:21 50.00617 -1.05316 34017 ft 426 kts
2026-05-04 10:21 50.06504 -1.04495 34012 ft 426 kts
2026-05-04 10:22 50.15358 -1.03248 34013 ft 425 kts
2026-05-04 10:23 50.21246 -1.02418 34018 ft 425 kts
2026-05-04 10:25 50.44765 -0.99111 34016 ft 424 kts
2026-05-04 10:25 50.50639 -0.98288 34008 ft 423 kts
2026-05-04 10:26 50.56500 -0.97464 34008 ft 423 kts
2026-05-04 10:26 50.62351 -0.96639 34008 ft 422 kts
2026-05-04 10:27 50.68198 -0.95812 34015 ft 421 kts
2026-05-04 10:27 50.74022 -0.94975 34001 ft 420 kts
2026-05-04 10:28 50.79829 -0.94120 34006 ft 419 kts
2026-05-04 10:28 50.85514 -0.92194 34013 ft 419 kts 17°
2026-05-04 10:29 50.91026 -0.89277 34011 ft 421 kts 18°
2026-05-04 10:29 50.96585 -0.86311 34008 ft 422 kts 18°
2026-05-04 10:30 51.02157 -0.83386 34012 ft 423 kts 17°
2026-05-04 10:30 51.07744 -0.80475 34009 ft 422 kts 17°
2026-05-04 10:31 51.13321 -0.77569 34017 ft 421 kts 17°
2026-05-04 10:32 51.32796 -0.67361 30883 ft 423 kts 18°
2026-05-04 10:33 51.35593 -0.65886 30300 ft 424 kts 17°
2026-05-04 10:33 51.38396 -0.64407 29708 ft 424 kts 17°
2026-05-04 10:33 51.41188 -0.62932 29163 ft 420 kts 17°
2026-05-04 10:33 51.43946 -0.61472 28682 ft 416 kts 17°
2026-05-04 10:34 51.46685 -0.60021 28181 ft 412 kts 18°
2026-05-04 10:34 51.49391 -0.58586 27701 ft 407 kts 18°
2026-05-04 10:34 51.52070 -0.57163 27210 ft 404 kts 18°
2026-05-04 10:34 51.54721 -0.55753 26715 ft 400 kts 18°
2026-05-04 10:35 51.57349 -0.54354 26249 ft 396 kts 18°
2026-05-04 10:35 51.59952 -0.52967 25763 ft 393 kts 17°
2026-05-04 10:35 51.62537 -0.51588 25313 ft 389 kts 17°
2026-05-04 10:35 51.65098 -0.50219 24859 ft 386 kts 17°
2026-05-04 10:36 51.67645 -0.48857 24392 ft 384 kts 18°
2026-05-04 10:36 51.70154 -0.47513 24004 ft 380 kts 18°
2026-05-04 10:36 51.72631 -0.46185 23539 ft 377 kts 18°
2026-05-04 10:36 51.75109 -0.44855 23009 ft 374 kts 18°
2026-05-04 10:37 51.77571 -0.43537 22500 ft 371 kts 16°
2026-05-04 10:37 51.79962 -0.42956 22106 ft 364 kts 355°
2026-05-04 10:37 51.82434 -0.43763 22061 ft 361 kts 336°
2026-05-04 10:37 51.84610 -0.45581 21993 ft 346 kts 327°
2026-05-04 10:39 51.96463 -0.57334 19936 ft 324 kts 326°
2026-05-04 10:39 51.98385 -0.59226 19610 ft 322 kts 327°
2026-05-04 10:39 52.00304 -0.61113 19228 ft 323 kts 327°
2026-05-04 10:40 52.02232 -0.63008 18827 ft 324 kts 327°
2026-05-04 10:40 52.04165 -0.64909 18438 ft 326 kts 327°
2026-05-04 10:40 52.06104 -0.66816 17990 ft 325 kts 327°
2026-05-04 10:40 52.08035 -0.68717 17536 ft 324 kts 327°
2026-05-04 10:41 52.09959 -0.70612 17088 ft 323 kts 327°
2026-05-04 10:41 52.11873 -0.72500 16652 ft 321 kts 327°
2026-05-04 10:41 52.13781 -0.74383 16204 ft 320 kts 327°
2026-05-04 10:41 52.15680 -0.76260 15773 ft 319 kts 327°
2026-05-04 10:42 52.17570 -0.78131 15344 ft 317 kts 327°
2026-05-04 10:42 52.19449 -0.79991 14923 ft 316 kts 327°
2026-05-04 10:42 52.21323 -0.81849 14511 ft 314 kts 327°
2026-05-04 10:42 52.23186 -0.83697 14089 ft 313 kts 327°
2026-05-04 10:43 52.25043 -0.85540 13673 ft 311 kts 327°
2026-05-04 10:44 52.37748 -0.98139 10681 ft 298 kts 327°
2026-05-04 10:45 52.39515 -0.99879 10299 ft 296 kts 330°
2026-05-04 10:45 52.41474 -1.00796 10069 ft 292 kts 356°
2026-05-04 10:45 52.43462 -1.00438 10041 ft 287 kts 12°
2026-05-04 10:45 52.45386 -0.99595 10032 ft 285 kts 15°
2026-05-04 10:46 52.47294 -0.98972 10024 ft 283 kts 358°
2026-05-04 10:46 52.49213 -0.99669 10042 ft 280 kts 335°
2026-05-04 10:46 52.50979 -1.01050 10037 ft 281 kts 332°
2026-05-04 10:46 52.52700 -1.02494 10035 ft 281 kts 331°
2026-05-04 10:47 52.54446 -1.04000 9863 ft 282 kts 331°
2026-05-04 10:47 52.56165 -1.05497 9517 ft 283 kts 331°
2026-05-04 10:47 52.57915 -1.07031 9166 ft 279 kts 331°
2026-05-04 10:47 52.59626 -1.08520 8823 ft 276 kts 331°
2026-05-04 10:49 52.66767 -1.24188 6525 ft 255 kts 281°
2026-05-04 10:49 52.67113 -1.27056 6189 ft 254 kts 281°
2026-05-04 10:50 52.67453 -1.29885 5845 ft 249 kts 281°
2026-05-04 10:51 52.70356 -1.47018 3864 ft 232 kts 310°
2026-05-04 10:52 52.71354 -1.49045 3617 ft 223 kts 310°
2026-05-04 10:52 52.72305 -1.50989 3368 ft 212 kts 310°
2026-05-04 10:52 52.73204 -1.52836 3120 ft 202 kts 310°
2026-05-04 10:54 52.78886 -1.64486 2986 ft 155 kts 310°
2026-05-04 10:54 52.79408 -1.65275 2989 ft 150 kts 334°
2026-05-04 10:56 52.82665 -1.56658 2935 ft 151 kts 86°
2026-05-04 10:56 52.82710 -1.54927 2742 ft 150 kts 86°
2026-05-04 10:56 52.82744 -1.53275 2569 ft 136 kts 87°
2026-05-04 10:57 52.82771 -1.51771 2385 ft 128 kts 87°
2026-05-04 10:57 52.82795 -1.50341 2201 ft 122 kts 86°
2026-05-04 10:57 52.82819 -1.48944 2060 ft 122 kts 85°
2026-05-04 10:57 52.82842 -1.47564 1897 ft 122 kts 85°
2026-05-04 10:58 52.82865 -1.46148 1742 ft 123 kts 85°
2026-05-04 10:58 52.82890 -1.44705 1566 ft 123 kts 85°
2026-05-04 10:58 52.82914 -1.43292 1416 ft 124 kts 85°
2026-05-04 10:58 52.82934 -1.41849 1234 ft 134 kts 87°
2026-05-04 10:59 52.82934 -1.40307 1027 ft 127 kts 87°
2026-05-04 10:59 52.82954 -1.38928 787 ft 119 kts 85°
2026-05-04 10:59 52.83007 -1.37394 664 ft 133 kts 86°
2026-05-04 10:59 52.83047 -1.35807 466 ft 143 kts 86°
2026-05-04 11:00 52.83072 -1.34210 319 ft 136 kts 85°
2026-05-04 11:01 52.82973 -1.31326 300 ft 2 kts 213°
2026-05-04 11:02 52.82956 -1.31386 302 ft 11 kts 262°
2026-05-04 11:02 52.82953 -1.31542 300 ft 15 kts 269°
2026-05-04 11:05 52.82774 -1.33329 303 ft 1 kts 263°
2026-05-04 11:06 52.82764 -1.33345 300 ft 3 kts 213°
2026-05-04 11:06 52.82742 -1.33351 300 ft 4 kts 180°
2026-05-04 11:06 52.82716 -1.33350 300 ft 0 kts 179°
2026-05-04 11:06 52.82708 -1.33349 301 ft 2 kts 178°
2026-05-04 11:08 52.82707 -1.33349 301 ft 0 kts 178°